Kuressaare current weather conditions

sailwx.info

Wind from 250 at 12 knots

Air temperature 2.0° C
Visibility: greater than 4.9 NM
Dewpoint 2.0° C
Present weather: Light rain.

Last reported at 2017-Feb-20 06:50 UTC.
Time now 2017-Feb-20 08:55 UTC

Location: N 58°14' E 022°31'.
View on Google Maps.

See reports from other nearby stations

  
Tides and Currents Weather Stations Pressure Air Temp Water Temp Dewpoint Dewpoint Depression Visibility Wind Speed Wind Dir Waves Ship Positions
date/time (UTC)wind fromknots sea level pressurealtimeterstation pressurevisibilityair tempwater tempwave heightnotes
2017-Feb-20 06:50 250 12 4.9 2.0 Light rain.
2017-Feb-20 05:50 240 12 5.4 2.0 Light rain.
2017-Feb-20 05:30 250 9 5.4 3.0
2017-Feb-20 05:18 240 11 5.4 2.0
2017-Feb-20 04:50 240 11 5.4 3.0
2017-Feb-20 04:24 250 11 5.4 2.0
2017-Feb-20 04:14 240 9 5.4 2.0
2017-Feb-20 04:04 250 9 5.4 3.0
2017-Feb-20 03:51 240 9 5.4 2.0
2017-Feb-20 03:50 250 9 5.4 2.0
2017-Feb-20 03:28 240 9 5.4 2.0
2017-Feb-20 02:50 250 11 5.4 3.0
2017-Feb-20 02:38 250 11 5.4 3.0
2017-Feb-20 02:10 240 11 5.4 2.0
2017-Feb-20 01:50 250 11 gusting 20 5.4 3.0
2017-Feb-20 00:50 250 12 5.4 3.0
2017-Feb-20 00:27 250 13 gusting 22 5.4 3.0
2017-Feb-19 23:50 250 13 gusting 22 5.4 3.0
2017-Feb-19 23:32 250 13 5.4 3.0
2017-Feb-19 23:07 250 13 5.4 3.0
2017-Feb-19 22:50 250 12 5.4 3.0
2017-Feb-19 21:50 250 13 gusting 22 5.4 3.0
2017-Feb-19 21:09 250 12 5.4 3.0
2017-Feb-19 20:50 250 12 gusting 21 5.4 3.0
2017-Feb-19 20:31 250 12 5.4 3.0
2017-Feb-19 20:29 250 13 5.4 3.0
2017-Feb-19 20:17 250 13 4.9 3.0
2017-Feb-19 20:16 250 13 4.9 3.0
2017-Feb-19 20:00 250 13 4.3 3.0
2017-Feb-19 19:50 250 11 3.2 3.0
2017-Feb-19 19:39 250 11 3.2 3.0
2017-Feb-19 19:10 250 13 2.7 3.0
2017-Feb-19 18:52 250 13 3.2 3.0
2017-Feb-19 18:50 250 13 3.2 3.0
2017-Feb-19 17:50 250 11 3.8 3.0
2017-Feb-19 17:04 240 11 2.7 2.0 Mist.
2017-Feb-19 16:56 240 11 2.7 2.0 Mist.
2017-Feb-19 16:50 240 11 2.7 2.0 Mist.
2017-Feb-19 15:50 240 9 4.9 3.0
2017-Feb-19 14:50 250 9 5.4 3.0
2017-Feb-19 13:50 250 11 5.4 3.0
2017-Feb-19 12:50 240 12 3.2 3.0
2017-Feb-19 11:50 240 12 2.7 3.0 Mist.
2017-Feb-19 10:50 250 12 2.7 3.0 Mist.
2017-Feb-19 09:50 250 13 2.4 3.0 Light drizzle. Mist.
2017-Feb-19 08:50 250 13 2.4 3.0 Mist.
2017-Feb-19 08:37 250 13 2.4 3.0 Mist.
2017-Feb-19 08:26 250 13 2.6 3.0 Mist.
2017-Feb-19 08:00 250 13 2.5 2.0 Mist.
2017-Feb-19 07:50 250 13 2.4 3.0 Drizzle. Mist.
2017-Feb-19 07:34 250 13 2.5 2.0 Drizzle. Mist.
2017-Feb-19 07:15 250 13 2.4 2.0 Drizzle.
2017-Feb-19 07:11 250 13 2.7 2.0 Drizzle.
2017-Feb-19 07:00 240 13 2.5 2.0 Drizzle. Mist.
2017-Feb-19 06:57 250 13 2.5 2.0 Light rain.
2017-Feb-19 06:50 240 13 2.7 2.0 Light rain.
2017-Feb-19 06:23 240 13 2.4 2.0 Light rain.
2017-Feb-19 06:08 240 13 1.9 2.0 Rain.
2017-Feb-19 05:58 240 13 2.6 2.0 Light rain.
2017-Feb-19 05:50 240 13 gusting 24 3.8 2.0 Light rain.
2017-Feb-19 05:29 240 13 3.8 2.0 Drizzle.
2017-Feb-19 05:27 240 13 3.8 2.0 Light rain.
2017-Feb-19 05:13 240 13 gusting 24 2.6 2.0 Light rain.
2017-Feb-19 05:04 240 13 2.7 2.0 Light rain.
2017-Feb-19 04:51 240 14 2.2 2.0 Heavy drizzle.
2017-Feb-19 04:50 240 14 3.2 2.0 Light rain.
2017-Feb-19 04:38 240 14 2.7 2.0 Light rain.
2017-Feb-19 04:18 240 15 2.4 2.0 Light rain.
2017-Feb-19 03:50 230 13 2.7 2.0 Light rain.
2017-Feb-19 03:10 230 13 gusting 25 2.7 2.0 Light rain.
2017-Feb-19 02:50 230 13 4.3 2.0 Drizzle.
2017-Feb-19 02:26 240 13 3.8 2.0 Drizzle.
2017-Feb-19 02:13 240 13 4.9 2.0 Light rain.
2017-Feb-19 02:02 240 12 5.4 2.0 Drizzle.
2017-Feb-19 01:50 240 11 5.4 1.0
2017-Feb-19 01:00 240 12 5.4 2.0
2017-Feb-19 00:50 240 12 5.4 1.0
2017-Feb-19 00:04 240 12 4.3 1.0
2017-Feb-18 23:50 240 13 1.6 1.0 Mist.
2017-Feb-18 23:27 240 12 2.3 1.0 Mist.
2017-Feb-18 23:01 240 13 4.3 1.0
2017-Feb-18 22:50 240 13 2.2 1.0 Mist.
2017-Feb-18 22:32 230 13 gusting 22 1.9 1.0 Mist.
2017-Feb-18 22:12 230 12 gusting 22 2.2 1.0 Mist.
2017-Feb-18 21:59 230 12 1.7 1.0 Mist.
2017-Feb-18 21:50 230 12 2.3 1.0 Mist.
2017-Feb-18 21:21 230 11 2.2 1.0 Mist.
2017-Feb-18 20:50 230 12 5.4-0.0
2017-Feb-18 19:50 230 9 3.8-0.0
2017-Feb-18 19:38 230 9 4.3-0.0
2017-Feb-18 19:25 230 8 5.4-0.0
2017-Feb-18 18:50 240 8 3.2-0.0
2017-Feb-18 18:29 230 8 2.7-0.0 Mist.
2017-Feb-18 18:13 240 9 2.4-0.0 Mist.
2017-Feb-18 18:02 240 9 3.2-0.0 Mist.
2017-Feb-18 17:50 230 8 1.3-0.0 Mist.
2017-Feb-18 17:29 240 8 1.4-0.0 Mist.
2017-Feb-18 17:10 240 7 2.3-0.0 Mist.
2017-Feb-18 16:58 250 8 2.5-0.0
2017-Feb-18 16:50 250 8 2.7-0.0
2017-Feb-18 16:29 240 7 2.5-0.0
2017-Feb-18 16:16 240 6 1.5-0.0
2017-Feb-18 16:00 240 6 2.4-0.0
2017-Feb-18 15:50 250 6 3.8-0.0
2017-Feb-18 15:36 250 6 4.9-0.0
2017-Feb-18 15:23 250 6 2.7-0.0
2017-Feb-18 15:05 250 7 1.2-0.0
2017-Feb-18 15:01 240 6 3.8-0.0
2017-Feb-18 14:53 250 6 4.9-0.0
2017-Feb-18 14:50 250 7 5.4-0.0
2017-Feb-18 14:32 250 7 5.4-0.0
2017-Feb-18 14:20 260 7 5.4-0.0
2017-Feb-18 14:18 260 8 5.4-0.0
2017-Feb-18 14:17 260 7 5.4-0.0
2017-Feb-18 14:01 240 8 1.3-0.0
2017-Feb-18 14:00 240 7 2.7-0.0
2017-Feb-18 13:50 240 7 2.2-0.0
2017-Feb-18 13:38 240 6 2.4-0.0
2017-Feb-18 13:36 240 7 4.9-0.0
2017-Feb-18 13:35 240 6 5.4 1.0
2017-Feb-18 13:28 240 6 5.4 1.0
2017-Feb-18 12:50 270 8 5.4 2.0
2017-Feb-18 11:50 270 8 5.4 6.0
2017-Feb-18 10:50 280 7 5.4 5.0
2017-Feb-18 09:50 280 6 5.4 3.0
2017-Feb-18 08:50 280 6 5.4 2.0